Terminal Aerodrome Forecast
Issued by NWS Dallas/Fort Worth, TX

Home | Current Version | Previous Version | Text Only | Print | Product List | Glossary On
Versions: 1 2 3 4 5 6 7 8 9 10 11 12 13 14 15 16 17 18 19 20 21 22 23 24 25 26 27 28
000
FTUS44 KFWD 071509 AAC
TAFACT
TAF AMD
KACT 071509Z 0715/0812 20012KT P6SM FEW300
     FM080200 34012KT P6SM FEW300
     FM080900 34020KT P6SM SKC=

USA.gov is the U.S. government's official web portal to all federal, state and local government web resources and services.